Location: Feudal
(51.8839°N, 107.6105°W)
Time: 05:51:50
(UTC+00:00)

Envisat - Pass Details

Date: 22 January 2022
Orbit: 764 x 765 km, 98.2° (Epoch: 25 May)

Event Time Altitude Azimuth Distance (km) Brightness Sun altitude
Rises 13:24:11 0° 8° (N) 3,245 6.2 -15.0°
Reaches altitude 10° 13:26:43 10° 358° (N) 2,314 5.3 -14.6°
Maximum altitude 13:31:07 31° 298° (WNW) 1,339 3.7 -13.9°
Drops below altitude 10° 13:35:30 10° 238° (WSW) 2,302 5.1 -13.3°
Sets 13:38:01 0° 228° (SW) 3,224 5.9 -12.9°
